Kaldármelar Airport

Jump to: basic info | weather | comments

Related pages: nearby airports | nearby navaids | notams | map

Basic information (top)

Codes: BIKA
Location: lon 64.778900, lat -22.256901, elev 160 ft / 49 m msl
Status: small_airport

Weather (top)

Current conditions for Reykjavik Airport 40nm (74km) SSE (rec'd 2014/10/21 06:31Z):

BIRK 210631Z 10008KT 6000 -SN FEW006 BKN010 OVC042 M02/M03 Q0998

Airport forecast for Reykjavik Airport 40nm (74km) SSE (rec'd 2014/10/21 03:35Z):

TAF BIRK 210132Z 2103/2203 35013KT 9999 SHRASN FEW025 BKN035 TX03/2115Z TNM02/2109Z 
      TEMPO 2103/2106 3000 SHSN BKN010CB 
      BECMG 2121/2124 12012KT BKN015

Latest comments (top)

No comments yet for Kaldármelar Airport

More... (top)

See also NOTAMs and nearby airports and navaids, or visit the Kaldármelar Airport page at the main OurAirports website..